Year,Month,Day,Hour,Minute,Value (Times are PST for temperature in C)
2009,10,30,00,00,10.20
2009,10,30,00,01,10.10
2009,10,30,00,02,10.10
2009,10,30,00,03,10.10
2009,10,30,00,04,10.10
2009,10,30,00,05,10.10
2009,10,30,00,06,10.10
2009,10,30,00,07,10.10
2009,10,30,00,08,10.10
2009,10,30,00,09,10.10
2009,10,30,00,10,10.10
2009,10,30,00,11,10.10
2009,10,30,00,12,10.10
2009,10,30,00,13,10.10
2009,10,30,00,14,10.10
2009,10,30,00,15,10.10
2009,10,30,00,16,10.10
2009,10,30,00,17,10.10
2009,10,30,00,18,10.10
2009,10,30,00,19,10.10
2009,10,30,00,20,10.10
2009,10,30,00,21,10.10
2009,10,30,00,22,10.10
2009,10,30,00,23,10.10
2009,10,30,00,24,10.10
2009,10,30,00,25,10.10
2009,10,30,00,26,10.10
2009,10,30,00,27,10.10
2009,10,30,00,28,10.10
2009,10,30,00,29,10.10
2009,10,30,00,30,10.10
2009,10,30,00,31,10.10
2009,10,30,00,32,10.10
2009,10,30,00,33,10.10
2009,10,30,00,34,10.10
2009,10,30,00,35,10.10
2009,10,30,00,36,10.10
2009,10,30,00,37,10.10
2009,10,30,00,38,10.10
2009,10,30,00,39,10.10
2009,10,30,00,40,10.10
2009,10,30,00,41,10.10
2009,10,30,00,42,10.10
2009,10,30,00,43,10.10
2009,10,30,00,44,10.10
2009,10,30,00,45,10.10
2009,10,30,00,46,10.10
2009,10,30,00,47,10.10
2009,10,30,00,48,10.10
2009,10,30,00,49,10.20
2009,10,30,00,50,10.20
2009,10,30,00,51,10.20
2009,10,30,00,52,10.20
2009,10,30,00,53,10.20
2009,10,30,00,54,10.30
2009,10,30,00,55,10.30
2009,10,30,00,56,10.30
2009,10,30,00,57,10.30
2009,10,30,00,58,10.30
2009,10,30,00,59,10.30
2009,10,30,01,00,10.30
2009,10,30,01,01,10.40
2009,10,30,01,02,10.40
2009,10,30,01,03,10.40
2009,10,30,01,04,10.40
2009,10,30,01,05,10.40
2009,10,30,01,06,10.40
2009,10,30,01,07,10.40
2009,10,30,01,08,10.40
2009,10,30,01,09,10.40
2009,10,30,01,10,10.40
2009,10,30,01,11,10.40
2009,10,30,01,12,10.40
2009,10,30,01,13,10.50
2009,10,30,01,14,10.50
2009,10,30,01,15,10.50
2009,10,30,01,16,10.50
2009,10,30,01,17,10.50
2009,10,30,01,18,10.50
2009,10,30,01,19,10.60
2009,10,30,01,20,10.60
2009,10,30,01,21,10.60
2009,10,30,01,22,10.60
2009,10,30,01,23,10.70
2009,10,30,01,24,10.70
2009,10,30,01,25,10.70
2009,10,30,01,26,10.80
2009,10,30,01,27,10.80
2009,10,30,01,28,10.80
2009,10,30,01,29,10.80
2009,10,30,01,30,10.80
2009,10,30,01,31,10.80
2009,10,30,01,32,10.80
2009,10,30,01,33,10.80
2009,10,30,01,34,10.80
2009,10,30,01,35,10.80
2009,10,30,01,36,10.80
2009,10,30,01,37,10.80
2009,10,30,01,38,10.90
2009,10,30,01,39,10.90
2009,10,30,01,40,10.90
2009,10,30,01,41,10.90
2009,10,30,01,42,10.90
2009,10,30,01,43,10.90
2009,10,30,01,44,10.80
2009,10,30,01,45,10.80
2009,10,30,01,46,10.80
2009,10,30,01,47,10.80
2009,10,30,01,48,10.80
2009,10,30,01,49,10.80
2009,10,30,01,50,10.80
2009,10,30,01,51,10.80
2009,10,30,01,52,10.80
2009,10,30,01,53,10.80
2009,10,30,01,54,10.80
2009,10,30,01,55,10.80
2009,10,30,01,56,10.80
2009,10,30,01,57,10.80
2009,10,30,01,58,10.80
2009,10,30,01,59,10.80
2009,10,30,02,00,10.80
2009,10,30,02,01,10.80
2009,10,30,02,02,10.80
2009,10,30,02,03,10.80
2009,10,30,02,04,10.80
2009,10,30,02,05,10.80
2009,10,30,02,06,10.80
2009,10,30,02,07,10.80
2009,10,30,02,08,10.80
2009,10,30,02,09,10.80
2009,10,30,02,10,10.80
2009,10,30,02,11,10.80
2009,10,30,02,12,10.70
2009,10,30,02,13,10.80
2009,10,30,02,14,10.80
2009,10,30,02,15,10.80
2009,10,30,02,16,10.80
2009,10,30,02,17,10.80
2009,10,30,02,18,10.80
2009,10,30,02,19,10.90
2009,10,30,02,20,10.90
2009,10,30,02,21,10.90
2009,10,30,02,22,11.00
2009,10,30,02,23,11.00
2009,10,30,02,24,11.10
2009,10,30,02,25,11.10
2009,10,30,02,26,11.10
2009,10,30,02,27,11.20
2009,10,30,02,28,11.20
2009,10,30,02,29,11.20
2009,10,30,02,30,11.20
2009,10,30,02,31,11.30
2009,10,30,02,32,11.30
2009,10,30,02,33,11.30
2009,10,30,02,34,11.30
2009,10,30,02,35,11.30
2009,10,30,02,36,11.40
2009,10,30,02,37,11.40
2009,10,30,02,38,11.50
2009,10,30,02,39,11.50
2009,10,30,02,40,11.50
2009,10,30,02,41,11.50
2009,10,30,02,42,11.50
2009,10,30,02,43,11.60
2009,10,30,02,44,11.60
2009,10,30,02,45,11.60
2009,10,30,02,46,11.60
2009,10,30,02,47,11.70
2009,10,30,02,48,11.70
2009,10,30,02,49,11.70
2009,10,30,02,50,11.70
2009,10,30,02,51,11.70
2009,10,30,02,52,11.70
2009,10,30,02,53,11.70
2009,10,30,02,54,11.70
2009,10,30,02,55,11.70
2009,10,30,02,56,11.70
2009,10,30,02,57,11.70
2009,10,30,02,58,11.70
2009,10,30,02,59,11.70
2009,10,30,03,00,11.80
2009,10,30,03,01,11.80
2009,10,30,03,02,11.80
2009,10,30,03,03,11.80
2009,10,30,03,04,11.80
2009,10,30,03,05,11.80
2009,10,30,03,06,11.80
2009,10,30,03,07,11.80
2009,10,30,03,08,11.80
2009,10,30,03,09,11.80
2009,10,30,03,10,11.80
2009,10,30,03,11,11.70
2009,10,30,03,12,11.70
2009,10,30,03,13,11.70
2009,10,30,03,14,11.70
2009,10,30,03,15,11.70
2009,10,30,03,16,11.70
2009,10,30,03,17,11.60
2009,10,30,03,18,11.60
2009,10,30,03,19,11.60
2009,10,30,03,20,11.60
2009,10,30,03,21,11.60
2009,10,30,03,22,11.60
2009,10,30,03,23,11.60
2009,10,30,03,24,11.50
2009,10,30,03,25,11.50
2009,10,30,03,26,11.50
2009,10,30,03,27,11.50
2009,10,30,03,28,11.40
2009,10,30,03,29,11.40
2009,10,30,03,30,11.40
2009,10,30,03,31,11.40
2009,10,30,03,32,11.40
2009,10,30,03,33,11.40
2009,10,30,03,34,11.40
2009,10,30,03,35,11.40
2009,10,30,03,36,11.40
2009,10,30,03,37,11.40
2009,10,30,03,38,11.40
2009,10,30,03,39,11.40
2009,10,30,03,40,11.40
2009,10,30,03,41,11.40
2009,10,30,03,42,11.40
2009,10,30,03,43,11.40
2009,10,30,03,44,11.40
2009,10,30,03,45,11.40
2009,10,30,03,46,11.40
2009,10,30,03,47,11.40
2009,10,30,03,48,11.40
2009,10,30,03,49,11.40
2009,10,30,03,50,11.40
2009,10,30,03,51,11.40
2009,10,30,03,52,11.40
2009,10,30,03,53,11.40
2009,10,30,03,54,11.40
2009,10,30,03,55,11.40
2009,10,30,03,56,11.50
2009,10,30,03,57,11.50
2009,10,30,03,58,11.50
2009,10,30,03,59,11.50
2009,10,30,04,00,11.50
2009,10,30,04,01,11.60
2009,10,30,04,02,11.60
2009,10,30,04,03,11.60
2009,10,30,04,04,11.60
2009,10,30,04,05,11.60
2009,10,30,04,06,11.60
2009,10,30,04,07,11.60
2009,10,30,04,08,11.60
2009,10,30,04,09,11.60
2009,10,30,04,10,11.70
2009,10,30,04,11,11.70
2009,10,30,04,12,11.70
2009,10,30,04,13,11.70
2009,10,30,04,14,11.70
2009,10,30,04,15,11.70
2009,10,30,04,16,11.70
2009,10,30,04,17,11.70
2009,10,30,04,18,11.70
2009,10,30,04,19,11.70
2009,10,30,04,20,11.70
2009,10,30,04,21,11.70
2009,10,30,04,22,11.70
2009,10,30,04,23,11.70
2009,10,30,04,24,11.70
2009,10,30,04,25,11.70
2009,10,30,04,26,11.70
2009,10,30,04,27,11.80
2009,10,30,04,28,11.80
2009,10,30,04,29,11.80
2009,10,30,04,30,11.80
2009,10,30,04,31,11.90
2009,10,30,04,32,11.90
2009,10,30,04,33,11.90
2009,10,30,04,34,12.00
2009,10,30,04,35,12.00
2009,10,30,04,36,12.00
2009,10,30,04,37,12.00
2009,10,30,04,38,12.10
2009,10,30,04,39,12.10
2009,10,30,04,40,12.00
2009,10,30,04,41,12.00
2009,10,30,04,42,12.00
2009,10,30,04,43,12.00
2009,10,30,04,44,12.10
2009,10,30,04,45,12.10
2009,10,30,04,46,12.10
2009,10,30,04,47,12.10
2009,10,30,04,48,12.10
2009,10,30,04,49,12.10
2009,10,30,04,50,12.10
2009,10,30,04,51,12.10
2009,10,30,04,52,12.10
2009,10,30,04,53,12.10
2009,10,30,04,54,12.10
2009,10,30,04,55,12.10
2009,10,30,04,56,12.10
2009,10,30,04,57,12.10
2009,10,30,04,58,12.10
2009,10,30,04,59,12.20
2009,10,30,05,00,12.20
2009,10,30,05,01,12.20
2009,10,30,05,02,12.20
2009,10,30,05,03,12.20
2009,10,30,05,04,12.20
2009,10,30,05,05,12.20
2009,10,30,05,06,12.20
2009,10,30,05,07,12.30
2009,10,30,05,08,12.30
2009,10,30,05,09,12.30
2009,10,30,05,10,12.30
2009,10,30,05,11,12.30
2009,10,30,05,12,12.30
2009,10,30,05,13,12.30
2009,10,30,05,14,12.30
2009,10,30,05,15,12.30
2009,10,30,05,16,12.30
2009,10,30,05,17,12.40
2009,10,30,05,18,12.40
2009,10,30,05,19,12.40
2009,10,30,05,20,12.40
2009,10,30,05,21,12.40
2009,10,30,05,22,12.40
2009,10,30,05,23,12.50
2009,10,30,05,24,12.50
2009,10,30,05,25,12.50
2009,10,30,05,26,12.50
2009,10,30,05,27,12.50
2009,10,30,05,28,12.50
2009,10,30,05,29,12.50
2009,10,30,05,30,12.50
2009,10,30,05,31,12.50
2009,10,30,05,32,12.50
2009,10,30,05,33,12.50
2009,10,30,05,34,12.50
2009,10,30,05,35,12.40
2009,10,30,05,36,12.50
2009,10,30,05,37,12.50
2009,10,30,05,38,12.50
2009,10,30,05,39,12.50
2009,10,30,05,40,12.50
2009,10,30,05,41,12.50
2009,10,30,05,42,12.50
2009,10,30,05,43,12.50
2009,10,30,05,44,12.40
2009,10,30,05,45,12.40
2009,10,30,05,46,12.40
2009,10,30,05,47,12.40
2009,10,30,05,48,12.50
2009,10,30,05,49,12.50
2009,10,30,05,50,12.50
2009,10,30,05,51,12.50
2009,10,30,05,52,12.50
2009,10,30,05,53,12.60
2009,10,30,05,54,12.70
2009,10,30,05,55,12.70
2009,10,30,05,56,12.70
2009,10,30,05,57,12.70
2009,10,30,05,58,12.70
2009,10,30,05,59,12.70
2009,10,30,06,00,12.70
2009,10,30,06,01,12.70
2009,10,30,06,02,12.80
2009,10,30,06,03,12.80
2009,10,30,06,04,12.80
2009,10,30,06,05,12.80
2009,10,30,06,06,12.80
2009,10,30,06,07,12.90
2009,10,30,06,08,13.00
2009,10,30,06,09,13.10
2009,10,30,06,10,13.20
2009,10,30,06,11,13.30
2009,10,30,06,12,13.40
2009,10,30,06,13,13.40
2009,10,30,06,14,13.40
2009,10,30,06,15,13.40
2009,10,30,06,16,13.50
2009,10,30,06,17,13.60
2009,10,30,06,18,13.70
2009,10,30,06,19,13.80
2009,10,30,06,20,13.80
2009,10,30,06,21,13.80
2009,10,30,06,22,13.90
2009,10,30,06,23,13.90
2009,10,30,06,24,14.00
2009,10,30,06,25,14.00
2009,10,30,06,26,14.00
2009,10,30,06,27,14.00
2009,10,30,06,28,14.10
2009,10,30,06,29,14.10
2009,10,30,06,30,14.10
2009,10,30,06,31,14.10
2009,10,30,06,32,14.10
2009,10,30,06,33,14.20
2009,10,30,06,34,14.20
2009,10,30,06,35,14.20
2009,10,30,06,36,14.30
2009,10,30,06,37,14.30
2009,10,30,06,38,14.30
2009,10,30,06,39,14.30
2009,10,30,06,40,14.30
2009,10,30,06,41,14.30
2009,10,30,06,42,14.20
2009,10,30,06,43,14.20
2009,10,30,06,44,14.20
2009,10,30,06,45,14.20
2009,10,30,06,46,14.20
2009,10,30,06,47,14.20
2009,10,30,06,48,14.20
2009,10,30,06,49,14.20
2009,10,30,06,50,14.20
2009,10,30,06,51,14.20
2009,10,30,06,52,14.20
2009,10,30,06,53,14.20
2009,10,30,06,54,14.20
2009,10,30,06,55,14.10
2009,10,30,06,56,14.10
2009,10,30,06,57,14.10
2009,10,30,06,58,14.20
2009,10,30,06,59,14.20
2009,10,30,07,00,14.20
2009,10,30,07,01,14.20
2009,10,30,07,02,14.20
2009,10,30,07,03,14.20
2009,10,30,07,04,14.20
2009,10,30,07,05,14.20
2009,10,30,07,06,14.20
2009,10,30,07,07,14.20
2009,10,30,07,08,14.20
2009,10,30,07,09,14.20
2009,10,30,07,10,14.20
2009,10,30,07,11,14.20
2009,10,30,07,12,14.20
2009,10,30,07,13,14.20
2009,10,30,07,14,14.20
2009,10,30,07,15,14.10
2009,10,30,07,16,14.10
2009,10,30,07,17,14.10
2009,10,30,07,18,14.10
2009,10,30,07,19,14.10
2009,10,30,07,20,14.10
2009,10,30,07,21,14.10
2009,10,30,07,22,14.20
2009,10,30,07,23,14.20
2009,10,30,07,24,14.10
2009,10,30,07,25,14.10
2009,10,30,07,26,14.10
2009,10,30,07,27,14.10
2009,10,30,07,28,14.20
2009,10,30,07,29,14.20
2009,10,30,07,30,14.20
2009,10,30,07,31,14.20
2009,10,30,07,32,14.20
2009,10,30,07,33,14.20
2009,10,30,07,34,14.20
2009,10,30,07,35,14.20
2009,10,30,07,36,14.20
2009,10,30,07,37,14.20
2009,10,30,07,38,14.20
2009,10,30,07,39,14.20
2009,10,30,07,40,14.20
2009,10,30,07,41,14.20
2009,10,30,07,42,14.20
2009,10,30,07,43,14.20
2009,10,30,07,44,14.20
2009,10,30,07,45,14.20
2009,10,30,07,46,14.20
2009,10,30,07,47,14.20
2009,10,30,07,48,14.20
2009,10,30,07,49,14.20
2009,10,30,07,50,14.20
2009,10,30,07,51,14.10
2009,10,30,07,52,14.10
2009,10,30,07,53,14.10
2009,10,30,07,54,14.10
2009,10,30,07,55,14.10
2009,10,30,07,56,14.00
2009,10,30,07,57,14.10
2009,10,30,07,58,14.10
2009,10,30,07,59,14.10
2009,10,30,08,00,14.10
2009,10,30,08,01,14.10
2009,10,30,08,02,14.10
2009,10,30,08,03,14.10
2009,10,30,08,04,14.10
2009,10,30,08,05,14.10
2009,10,30,08,06,14.00
2009,10,30,08,07,14.00
2009,10,30,08,08,14.00
2009,10,30,08,09,14.00
2009,10,30,08,10,14.00
2009,10,30,08,11,14.00
2009,10,30,08,12,14.00
2009,10,30,08,13,14.00
2009,10,30,08,14,14.00
2009,10,30,08,15,14.00
2009,10,30,08,16,13.90
2009,10,30,08,17,13.90
2009,10,30,08,18,13.90
2009,10,30,08,19,13.90
2009,10,30,08,20,13.90
2009,10,30,08,21,13.90
2009,10,30,08,22,13.90
2009,10,30,08,23,13.90
2009,10,30,08,24,13.90
2009,10,30,08,25,13.90
2009,10,30,08,26,13.90
2009,10,30,08,27,13.90
2009,10,30,08,28,13.90
2009,10,30,08,29,13.90
2009,10,30,08,30,13.90
2009,10,30,08,31,13.90
2009,10,30,08,32,13.90
2009,10,30,08,33,13.90
2009,10,30,08,34,13.90
2009,10,30,08,35,13.90
2009,10,30,08,36,13.90
2009,10,30,08,37,13.90
2009,10,30,08,38,13.90
2009,10,30,08,39,14.00
2009,10,30,08,40,13.90
2009,10,30,08,41,14.00
2009,10,30,08,42,14.00
2009,10,30,08,43,14.00
2009,10,30,08,44,14.00
2009,10,30,08,45,14.00
2009,10,30,08,46,14.00
2009,10,30,08,47,14.00
2009,10,30,08,48,14.10
2009,10,30,08,49,14.10
2009,10,30,08,50,14.10
2009,10,30,08,51,14.10
2009,10,30,08,52,14.20
2009,10,30,08,53,14.20
2009,10,30,08,54,14.20
2009,10,30,08,55,14.20
2009,10,30,08,56,14.30
2009,10,30,08,57,14.30
2009,10,30,08,58,14.30
2009,10,30,08,59,14.30
2009,10,30,09,00,14.30
2009,10,30,09,01,14.30
2009,10,30,09,02,14.30
2009,10,30,09,03,14.40
2009,10,30,09,04,14.40
2009,10,30,09,05,14.40
2009,10,30,09,06,14.40
2009,10,30,09,07,14.40
2009,10,30,09,08,14.50
2009,10,30,09,09,14.50
2009,10,30,09,10,14.50
2009,10,30,09,11,14.50
2009,10,30,09,12,14.60
2009,10,30,09,13,14.60
2009,10,30,09,14,14.60
2009,10,30,09,15,14.60
2009,10,30,09,16,14.70
2009,10,30,09,17,14.70
2009,10,30,09,18,14.70
2009,10,30,09,19,14.70
2009,10,30,09,20,14.70
2009,10,30,09,21,14.70
2009,10,30,09,22,14.80
2009,10,30,09,23,14.80
2009,10,30,09,24,14.90
2009,10,30,09,25,15.00
2009,10,30,09,26,15.00
2009,10,30,09,27,15.00
2009,10,30,09,28,15.00
2009,10,30,09,29,15.00
2009,10,30,09,30,15.00
2009,10,30,09,31,15.00
2009,10,30,09,32,15.00
2009,10,30,09,33,15.00
2009,10,30,09,34,15.00
2009,10,30,09,35,15.00
2009,10,30,09,36,15.00
2009,10,30,09,37,15.00
2009,10,30,09,38,15.00
2009,10,30,09,39,15.00
2009,10,30,09,40,15.00
2009,10,30,09,41,15.00
2009,10,30,09,42,15.00
2009,10,30,09,43,15.00
2009,10,30,09,44,15.00
2009,10,30,09,45,15.00
2009,10,30,09,46,15.00
2009,10,30,09,47,15.00
2009,10,30,09,48,15.00
2009,10,30,09,49,15.00
2009,10,30,09,50,15.00
2009,10,30,09,51,15.00
2009,10,30,09,52,15.00
2009,10,30,09,53,15.00
2009,10,30,09,54,15.00
2009,10,30,09,55,15.00
2009,10,30,09,56,15.00
2009,10,30,09,57,15.00
2009,10,30,09,58,15.00
2009,10,30,09,59,15.00
2009,10,30,10,00,15.00
2009,10,30,10,01,15.00
2009,10,30,10,02,15.00
2009,10,30,10,03,15.00
2009,10,30,10,04,15.00
2009,10,30,10,05,15.00
2009,10,30,10,06,15.10
2009,10,30,10,07,15.10
2009,10,30,10,08,15.20
2009,10,30,10,09,15.20
2009,10,30,10,10,15.20
2009,10,30,10,11,15.30
2009,10,30,10,12,15.30
2009,10,30,10,13,15.30
2009,10,30,10,14,15.30
2009,10,30,10,15,15.30
2009,10,30,10,16,15.30
2009,10,30,10,17,15.30
2009,10,30,10,18,15.30
2009,10,30,10,19,15.30
2009,10,30,10,20,15.30
2009,10,30,10,21,15.30
2009,10,30,10,22,15.30
2009,10,30,10,23,15.30
2009,10,30,10,24,15.30
2009,10,30,10,25,15.30
2009,10,30,10,26,15.40
2009,10,30,10,27,15.40
2009,10,30,10,28,15.40
2009,10,30,10,29,15.40
2009,10,30,10,30,15.40
2009,10,30,10,31,15.50
2009,10,30,10,32,15.50
2009,10,30,10,33,15.50
2009,10,30,10,34,15.50
2009,10,30,10,35,15.50
2009,10,30,10,36,15.50
2009,10,30,10,37,15.50
2009,10,30,10,38,15.50
2009,10,30,10,39,15.40
2009,10,30,10,40,15.40
2009,10,30,10,41,15.40
2009,10,30,10,42,15.40
2009,10,30,10,43,15.40
2009,10,30,10,44,15.40
2009,10,30,10,45,15.40
2009,10,30,10,46,15.40
2009,10,30,10,47,15.30
2009,10,30,10,48,15.30
2009,10,30,10,49,15.30
2009,10,30,10,50,15.30
2009,10,30,10,51,15.30
2009,10,30,10,52,15.20
2009,10,30,10,53,15.20
2009,10,30,10,54,15.10
2009,10,30,10,55,15.10
2009,10,30,10,56,15.00
2009,10,30,10,57,15.00
2009,10,30,10,58,15.00
2009,10,30,10,59,15.00
2009,10,30,11,00,15.00
2009,10,30,11,01,15.00
2009,10,30,11,02,15.00
2009,10,30,11,03,15.00
2009,10,30,11,04,15.00
2009,10,30,11,05,15.00
2009,10,30,11,06,15.00
2009,10,30,11,07,14.90
2009,10,30,11,08,14.80
2009,10,30,11,09,14.80
2009,10,30,11,10,14.80
2009,10,30,11,11,14.70
2009,10,30,11,12,14.70
2009,10,30,11,13,14.70
2009,10,30,11,14,14.60
2009,10,30,11,15,14.60
2009,10,30,11,16,14.60
2009,10,30,11,17,14.60
2009,10,30,11,18,14.50
2009,10,30,11,19,14.50
2009,10,30,11,20,14.50
2009,10,30,11,21,14.40
2009,10,30,11,22,14.40
2009,10,30,11,23,14.40
2009,10,30,11,24,14.40
2009,10,30,11,25,14.40
2009,10,30,11,26,14.40
2009,10,30,11,27,14.30
2009,10,30,11,28,14.30
2009,10,30,11,29,14.30
2009,10,30,11,30,14.30
2009,10,30,11,31,14.30
2009,10,30,11,32,14.30
2009,10,30,11,33,14.30
2009,10,30,11,34,14.30
2009,10,30,11,35,14.30
2009,10,30,11,36,14.30
2009,10,30,11,37,14.30
2009,10,30,11,38,14.30
2009,10,30,11,39,14.30
2009,10,30,11,40,14.30
2009,10,30,11,41,14.30
2009,10,30,11,42,14.30
2009,10,30,11,43,14.30
2009,10,30,11,44,14.30
2009,10,30,11,45,14.30
2009,10,30,11,46,14.30
2009,10,30,11,47,14.30
2009,10,30,11,48,14.30
2009,10,30,11,49,14.30
2009,10,30,11,50,14.20
2009,10,30,11,51,14.20
2009,10,30,11,52,14.20
2009,10,30,11,53,14.20
2009,10,30,11,54,14.20
2009,10,30,11,55,14.20
2009,10,30,11,56,14.20
2009,10,30,11,57,14.20
2009,10,30,11,58,14.20
2009,10,30,11,59,14.20
2009,10,30,12,00,14.20
2009,10,30,12,01,14.30
2009,10,30,12,02,14.30
2009,10,30,12,03,14.40
2009,10,30,12,04,14.40
2009,10,30,12,05,14.40
2009,10,30,12,06,14.40
2009,10,30,12,07,14.40
2009,10,30,12,08,14.50
2009,10,30,12,09,14.50
2009,10,30,12,10,14.50
2009,10,30,12,11,14.60
2009,10,30,12,12,14.60
2009,10,30,12,13,14.60
2009,10,30,12,14,14.60
2009,10,30,12,15,14.60
2009,10,30,12,16,14.60
2009,10,30,12,17,14.60
2009,10,30,12,18,14.60
2009,10,30,12,19,14.60
2009,10,30,12,20,14.60
2009,10,30,12,21,14.60
2009,10,30,12,22,14.60
2009,10,30,12,23,14.60
2009,10,30,12,24,14.60
2009,10,30,12,25,14.70
2009,10,30,12,26,14.70
2009,10,30,12,27,14.80
2009,10,30,12,28,14.70
2009,10,30,12,29,14.80
2009,10,30,12,30,14.80
2009,10,30,12,31,14.80
2009,10,30,12,32,14.80
2009,10,30,12,33,14.80
2009,10,30,12,34,14.80
2009,10,30,12,35,14.80
2009,10,30,12,36,14.80
2009,10,30,12,37,14.80
2009,10,30,12,38,14.90
2009,10,30,12,39,14.90
2009,10,30,12,40,14.90
2009,10,30,12,41,14.90
2009,10,30,12,42,14.90
2009,10,30,12,43,14.90
2009,10,30,12,44,15.00
2009,10,30,12,45,15.00
2009,10,30,12,46,15.00
2009,10,30,12,47,15.00
2009,10,30,12,48,15.00
2009,10,30,12,49,15.00
2009,10,30,12,50,15.00
2009,10,30,12,51,15.00
2009,10,30,12,52,15.00
2009,10,30,12,53,15.00
2009,10,30,12,54,15.00
2009,10,30,12,55,15.00
2009,10,30,12,56,15.00
2009,10,30,12,57,15.00
2009,10,30,12,58,15.00
2009,10,30,12,59,15.00
2009,10,30,13,00,15.00
2009,10,30,13,01,15.00
2009,10,30,13,02,15.00
2009,10,30,13,03,15.00
2009,10,30,13,04,15.00
2009,10,30,13,05,15.00
2009,10,30,13,06,15.00
2009,10,30,13,07,15.00
2009,10,30,13,08,15.00
2009,10,30,13,09,15.00
2009,10,30,13,10,15.00
2009,10,30,13,11,15.00
2009,10,30,13,12,15.00
2009,10,30,13,13,15.00
2009,10,30,13,14,15.00
2009,10,30,13,15,15.00
2009,10,30,13,16,15.00
2009,10,30,13,17,15.00
2009,10,30,13,18,15.00
2009,10,30,13,19,15.00
2009,10,30,13,20,15.00
2009,10,30,13,21,15.00
2009,10,30,13,22,15.00
2009,10,30,13,23,15.00
2009,10,30,13,24,15.00
2009,10,30,13,25,15.00
2009,10,30,13,26,15.00
2009,10,30,13,27,15.00
2009,10,30,13,28,15.00
2009,10,30,13,29,15.00
2009,10,30,13,30,15.00
2009,10,30,13,31,15.10
2009,10,30,13,32,15.10
2009,10,30,13,33,15.10
2009,10,30,13,34,15.20
2009,10,30,13,35,15.20
2009,10,30,13,36,15.20
2009,10,30,13,37,15.20
2009,10,30,13,38,15.30
2009,10,30,13,39,15.30
2009,10,30,13,40,15.30
2009,10,30,13,41,15.30
2009,10,30,13,42,15.30
2009,10,30,13,43,15.40
2009,10,30,13,44,15.40
2009,10,30,13,45,15.40
2009,10,30,13,46,15.40
2009,10,30,13,47,15.40
2009,10,30,13,48,15.50
2009,10,30,13,49,15.50
2009,10,30,13,50,15.50
2009,10,30,13,51,15.50
2009,10,30,13,52,15.50
2009,10,30,13,53,15.50
2009,10,30,13,54,15.60
2009,10,30,13,55,15.60
2009,10,30,13,56,15.60
2009,10,30,13,57,15.60
2009,10,30,13,58,15.60
2009,10,30,13,59,15.70
2009,10,30,14,00,15.70
2009,10,30,14,01,15.70
2009,10,30,14,02,15.70
2009,10,30,14,03,15.80
2009,10,30,14,04,15.80
2009,10,30,14,05,15.80
2009,10,30,14,06,15.80
2009,10,30,14,07,15.80
2009,10,30,14,08,15.80
2009,10,30,14,09,15.80
2009,10,30,14,10,15.80
2009,10,30,14,11,15.80
2009,10,30,14,12,15.80
2009,10,30,14,13,15.80
2009,10,30,14,14,15.90
2009,10,30,14,15,15.90
2009,10,30,14,16,15.90
2009,10,30,14,17,15.90
2009,10,30,14,18,15.90
2009,10,30,14,19,15.90
2009,10,30,14,20,15.90
2009,10,30,14,21,15.90
2009,10,30,14,22,15.90
2009,10,30,14,23,15.90
2009,10,30,14,24,16.00
2009,10,30,14,25,16.00
2009,10,30,14,26,16.00
2009,10,30,14,27,16.00
2009,10,30,14,28,16.00
2009,10,30,14,29,16.00
2009,10,30,14,30,16.00
2009,10,30,14,31,16.00
2009,10,30,14,32,16.00
2009,10,30,14,33,16.00
2009,10,30,14,34,16.00
2009,10,30,14,35,16.00
2009,10,30,14,36,16.00
2009,10,30,14,37,16.00
2009,10,30,14,38,16.00
2009,10,30,14,39,16.00
2009,10,30,14,40,16.00
2009,10,30,14,41,16.00
2009,10,30,14,42,16.00
2009,10,30,14,43,16.00
2009,10,30,14,44,16.00
2009,10,30,14,45,16.10
2009,10,30,14,46,16.00
2009,10,30,14,47,16.10
2009,10,30,14,48,16.10
2009,10,30,14,49,16.10
2009,10,30,14,50,16.10
2009,10,30,14,51,16.10
2009,10,30,14,52,16.10
2009,10,30,14,53,16.10
2009,10,30,14,54,16.10
2009,10,30,14,55,16.10
2009,10,30,14,56,16.10
2009,10,30,14,57,16.20
2009,10,30,14,58,16.20
2009,10,30,14,59,16.20
2009,10,30,15,00,16.20
2009,10,30,15,01,16.20
2009,10,30,15,02,16.30
2009,10,30,15,03,16.30
2009,10,30,15,04,16.30
2009,10,30,15,05,16.30
2009,10,30,15,06,16.30
2009,10,30,15,07,16.30
2009,10,30,15,08,16.40
2009,10,30,15,09,16.40
2009,10,30,15,10,16.30
2009,10,30,15,11,16.30
2009,10,30,15,12,16.30
2009,10,30,15,13,16.30
2009,10,30,15,14,16.30
2009,10,30,15,15,16.30
2009,10,30,15,16,16.40
2009,10,30,15,17,16.40
2009,10,30,15,18,16.50
2009,10,30,15,19,16.50
2009,10,30,15,20,16.50
2009,10,30,15,21,16.50
2009,10,30,15,22,16.50
2009,10,30,15,23,16.50
2009,10,30,15,24,16.40
2009,10,30,15,25,16.40
2009,10,30,15,26,16.40
2009,10,30,15,27,16.40
2009,10,30,15,28,16.30
2009,10,30,15,29,16.30
2009,10,30,15,30,16.30
2009,10,30,15,31,16.30
2009,10,30,15,32,16.20
2009,10,30,15,33,16.20
2009,10,30,15,34,16.10
2009,10,30,15,35,16.10
2009,10,30,15,36,16.10
2009,10,30,15,37,16.10
2009,10,30,15,38,16.10
2009,10,30,15,39,16.00
2009,10,30,15,40,16.00
2009,10,30,15,41,16.00
2009,10,30,15,42,15.90
2009,10,30,15,43,15.80
2009,10,30,15,44,15.80
2009,10,30,15,45,15.80
2009,10,30,15,46,15.70
2009,10,30,15,47,15.70
2009,10,30,15,48,15.70
2009,10,30,15,49,15.60
2009,10,30,15,50,15.60
2009,10,30,15,51,15.50
2009,10,30,15,52,15.50
2009,10,30,15,53,15.40
2009,10,30,15,54,15.40
2009,10,30,15,55,15.40
2009,10,30,15,56,15.30
2009,10,30,15,57,15.30
2009,10,30,15,58,15.30
2009,10,30,15,59,15.20
2009,10,30,16,00,15.20
2009,10,30,16,01,15.20
2009,10,30,16,02,15.20
2009,10,30,16,03,15.10
2009,10,30,16,04,15.10
2009,10,30,16,05,15.10
2009,10,30,16,06,15.00
2009,10,30,16,07,15.00
2009,10,30,16,08,15.00
2009,10,30,16,09,15.00
2009,10,30,16,10,15.00
2009,10,30,16,11,15.00
2009,10,30,16,12,15.00
2009,10,30,16,13,15.00
2009,10,30,16,14,15.00
2009,10,30,16,15,15.00
2009,10,30,16,16,15.00
2009,10,30,16,17,15.00
2009,10,30,16,18,14.90
2009,10,30,16,19,14.90
2009,10,30,16,20,14.90
2009,10,30,16,21,14.80
2009,10,30,16,22,14.80
2009,10,30,16,23,14.70
2009,10,30,16,24,14.70
2009,10,30,16,25,14.70
2009,10,30,16,26,14.60
2009,10,30,16,27,14.70
2009,10,30,16,28,14.60
2009,10,30,16,29,14.70
2009,10,30,16,30,14.60
2009,10,30,16,31,14.70
2009,10,30,16,32,14.70
2009,10,30,16,33,14.70
2009,10,30,16,34,14.70
2009,10,30,16,35,14.70
2009,10,30,16,36,14.70
2009,10,30,16,37,14.70
2009,10,30,16,38,14.70
2009,10,30,16,39,14.70
2009,10,30,16,40,14.70
2009,10,30,16,41,14.70
2009,10,30,16,42,14.70
2009,10,30,16,43,14.70
2009,10,30,16,44,14.70
2009,10,30,16,45,14.70
2009,10,30,16,46,14.70
2009,10,30,16,47,14.70
2009,10,30,16,48,14.70
2009,10,30,16,49,14.70
2009,10,30,16,50,14.60
2009,10,30,16,51,14.60
2009,10,30,16,52,14.60
2009,10,30,16,53,14.60
2009,10,30,16,54,14.50
2009,10,30,16,55,14.50
2009,10,30,16,56,14.40
2009,10,30,16,57,14.40
2009,10,30,16,58,14.30
2009,10,30,16,59,14.30
2009,10,30,17,00,14.30
2009,10,30,17,01,14.20
2009,10,30,17,02,14.10
2009,10,30,17,03,14.10
2009,10,30,17,04,14.00
2009,10,30,17,05,14.00
2009,10,30,17,06,13.90
2009,10,30,17,07,13.90
2009,10,30,17,08,13.80
2009,10,30,17,09,13.80
2009,10,30,17,10,13.80
2009,10,30,17,11,13.80
2009,10,30,17,12,13.70
2009,10,30,17,13,13.70
2009,10,30,17,14,13.70
2009,10,30,17,15,13.70
2009,10,30,17,16,13.70
2009,10,30,17,17,13.70
2009,10,30,17,18,13.70
2009,10,30,17,19,13.70